Content
SEND FEEDBACK

Daily
Averages
Monthly
Summary
France

ROUEN, FRANCE


Home > Europe > France
Elevation: 515 feet     Latitude: 49 23N     Longitude: 001 11E

WEATHER
 
SELECT A DAY
Number of Records: 182,658;   Date Range: 7/1/96 - 11/24/14
 
SHARE

PRINT THIS DATA

[ ← Previous Day ]
WEATHER ALMANAC - FEBRUARY 7, 2013
[ Next Day → ]
[ °C ]   °F
Weather ElementAverageHighLow
Temperature37.1 °F41 °F (12:00 pm)33.8 °F (7:30 pm)
Dewpoint30.3 °F32 °F (12:30 am)28 °F (7:00 pm)
Humidity76.3 %93 % (9:30 pm)55 % (1:00 pm)
Barometer30.03 in30.11 in (1:00 pm)29.95 in (12:30 am)
Wind Speed11.4 mph16.1 mph (12:30 am)
Weather ElementAverage
Visibility7.1 mi
Wind DirectionNNW (325.8 °)

Weather ElementTotal
Precipitation---
Heating Degree Days27.6 (Base 65)
Averaged from 50 records on February 7, 2013
WEATHER CONDITIONS BREAKOUT
WIND DIRECTION BREAKOUT
WEATHER BY HOUR - FEBRUARY 7, 2013
[ °C ]   °F
Local TimeTemperatureDewpointHumidityBarometerVisibilityWind DirectionWind SpeedGust SpeedPrecipitationEventsConditions
12:30 AM37.4 °F32.0 °F81 %29.95 in6.2 miNorth (360°)16.1 mphOvercast
1:00 AM37.0 °F32.0 °F75 %30.01 in11.0 miNorth (350°)15.0 mphRainLight Rain
1:00 AM37.4 °F32.0 °F81 %29.98 in6.2 miNorth (350°)16.1 mphRainLight Rain
1:30 AM37.4 °F32.0 °F81 %29.98 in6.2 miNorth (350°)12.7 mphRainLight Rain
2:00 AM37.4 °F32.0 °F81 %29.98 in6.2 miNNW (340°)13.8 mphOvercast
2:30 AM37.4 °F32.0 °F81 %30.01 in6.2 miNorth (350°)15.0 mphOvercast
3:00 AM37.4 °F32.0 °F81 %30.01 in6.2 miNNW (340°)13.8 mphRainLight Rain
3:30 AM37.4 °F30.2 °F75 %30.01 in6.2 miNNW (340°)15.0 mphOvercast
4:00 AM37.4 °F30.2 °F75 %30.01 in6.2 miNNW (340°)13.8 mphMostly Cloudy
4:30 AM35.6 °F30.2 °F81 %30.01 in6.2 miNNW (340°)12.7 mphOvercast
5:00 AM37.4 °F30.2 °F75 %30.04 in6.2 miNNW (330°)12.7 mphOvercast
5:30 AM35.6 °F30.2 °F81 %30.04 in6.2 miNNW (340°)13.8 mphMostly Cloudy
6:00 AM35.6 °F30.2 °F81 %30.04 in6.2 miNNW (330°)11.5 mphScattered Clouds
6:30 AM35.6 °F30.2 °F81 %30.04 in6.2 miNW (320°)10.4 mphMostly Cloudy
7:00 AM35.0 °F30.0 °F74 %30.09 in9.0 miNW (320°)11.5 mphPartly Cloudy
7:00 AM35.6 °F30.2 °F81 %30.04 in6.2 miNW (320°)11.5 mphOvercast
7:30 AM35.6 °F30.2 °F81 %30.06 in6.2 miNNW (330°)12.7 mphMostly Cloudy
8:00 AM35.6 °F30.2 °F81 %30.06 in6.2 miNNW (330°)13.8 mphOvercast
8:30 AM35.6 °F30.2 °F81 %30.06 in6.2 miNNW (330°)12.7 mphOvercast
9:00 AM35.6 °F30.2 °F81 %30.06 in6.2 miNW (320°)11.5 mphOvercast
9:30 AM37.4 °F30.2 °F75 %30.06 in6.2 miNNW (330°)11.5 mphOvercast
10:00 AM37.4 °F30.2 °F75 %30.06 in6.2 miNW (320°)11.5 mphMostly Cloudy
10:30 AM39.2 °F30.2 °F70 %30.06 in6.2 miNNW (330°)12.7 mphPartly Cloudy
11:00 AM39.2 °F32.0 °F75 %30.06 in6.2 miNNW (330°)12.7 mphOvercast
11:30 AM39.2 °F30.2 °F70 %30.09 in6.2 miNNW (330°)16.1 mphOvercast
12:00 PM41.0 °F32.0 °F70 %30.09 in6.2 miNNW (330°)15.0 mphMostly Cloudy
12:30 PM39.2 °F30.2 °F70 %30.09 in6.2 miNorth (360°)15.0 mphOvercast
1:00 PM41.0 °F30.0 °F55 %30.11 in12.0 miNorth16.1 mphPartly Cloudy
1:00 PM41.0 °F30.2 °F65 %30.06 in6.2 miNorth (360°)16.1 mphMostly Cloudy
1:30 PM39.2 °F30.2 °F70 %30.06 in6.2 miNorth (360°)13.8 mphMostly Cloudy
2:00 PM41.0 °F30.2 °F65 %30.06 in6.2 miNorth (350°)13.8 mphMostly Cloudy
2:30 PM41.0 °F28.4 °F61 %30.06 in6.2 miNorth (350°)12.7 mphMostly Cloudy
3:00 PM41.0 °F30.2 °F65 %30.04 in6.2 miNorth (350°)11.5 mphMostly Cloudy
4:00 PM41.0 °F28.4 °F61 %30.04 in6.2 miNorth (350°)11.5 mphOvercast
4:30 PM41.0 °F28.4 °F61 %30.04 in6.2 miNorth (350°)11.5 mphOvercast
5:00 PM39.2 °F28.4 °F65 %30.04 in6.2 miNNW (340°)12.7 mphOvercast
5:30 PM37.4 °F28.4 °F70 %30.04 in6.2 miNorth (350°)12.7 mph
6:00 PM37.4 °F28.4 °F70 %30.01 in6.2 miNorth (350°)10.4 mph
6:30 PM35.6 °F28.4 °F75 %30.01 in6.2 miNorth (350°)8.1 mphOvercast
7:00 PM35.0 °F28.0 °F66 %30.05 in37.0 miNorth (350°)5.8 mphClear
7:00 PM35.6 °F28.4 °F75 %30.01 in6.2 miNNW (340°)5.8 mph
7:30 PM33.8 °F28.4 °F81 %30.01 in6.2 miNNW (340°)4.6 mph
8:00 PM33.8 °F28.4 °F81 %30.01 in6.2 miWNW (290°)6.9 mphOvercast
8:30 PM35.6 °F30.2 °F81 %30.01 in6.2 miNorth (350°)6.9 mphRainLight Rain
9:00 PM35.6 °F32.0 °F87 %29.98 in6.2 miNNW (330°)5.8 mphMostly Cloudy
9:30 PM33.8 °F32.0 °F93 %29.98 in6.2 miNNW (330°)6.9 mphOvercast
10:00 PM33.8 °F32.0 °F93 %29.98 in6.2 miNNW (340°)4.6 mphDrizzle
10:30 PM33.8 °F32.0 °F93 %29.98 in5.6 miWest (260°)3.5 mphOvercast
11:00 PM33.8 °F32.0 °F93 %29.98 in4.3 miSW (230°)3.5 mphOvercast
11:30 PM33.8 °F32.0 °F93 %29.98 inSSW (210°)2.3 mphOvercast
Hourly data recorded from LFOP, located miles away from Rouen, France







STORIES FROM OUR PARTNERS